Regional Weather Roundup
Issued by NWS Sterling, VA

Home | Current Version | Previous Version | Graphics & Text | Print | Product List | Glossary On
Versions: 1 2 3 4 5 6 7 8 9 10 11 12 13 14 15 16 17 18 19 20 21 22 23 24 25 26 27 28 29 30 31 32 33 34 35 36 37 38 39 40 41 42 43 44 45 46 47 48 49 50
686
ASUS41 KLWX 280110
RWRLWX

REGIONAL WEATHER ROUNDUP
NATIONAL WEATHER SERVICE BALTIMORE MD/WASHINGTON DC
900 PM EDT MON MAR 27 2017

Note: "FAIR" indicates few or no clouds below 12,000 feet
with no significant weather and/or obstructions to visibility.
 TC=TEMPERATURE CELSIUS

 * =Non NWS site. Station does not report precipitation (e.g. rain,
    snow, etc.), thunder, or fog.

DCZ001-MDZ009-015-VAZ040>042-051-053>054-280200-
WASHINGTON METRO

CITY           SKY/WX    TMP DP  RH WIND       PRES   REMARKS
WASHINGTON NAT MOCLDY    66  57  72 NE3       29.93R
DULLES         CLOUDY    63  59  87 SE5       29.93R
ANDREWS AFB    CLOUDY    62  55  76 E5        29.92S
FT BELVOIR     MOCLDY    67  55  64 CALM      29.92R
QUANTICO       MOCLDY    66  56  70 SW8       29.93R
COLLEGE PARK*  CLOUDY    62  55  78 CALM      29.93R
LEESBURG*      CLOUDY    64  61  88 CALM      29.93S
MANASSAS*      LGT RAIN N/A N/A N/A N3G16     29.92R

$$

MDZ006>007-011-014-280200-
BALTIMORE METRO

CITY           SKY/WX    TMP DP  RH WIND       PRES   REMARKS
BWI AIRPORT    CLOUDY    59  55  87 NE3       29.93S
MD SCIENCE CTR   N/A     62  52  69 MISG      29.94S
MARTIN STATE   MOCLDY    57  55  94 CALM      29.96R
ANNAPOLIS      CLEAR     55  52  89 CALM      29.93S
FORT MEADE*    CLOUDY    57  52  82 CALM      29.96S

$$

MDZ012-015-019>023-280200-
MARYLAND EASTERN SHORE

CITY           SKY/WX    TMP DP  RH WIND       PRES   REMARKS
OCEAN CITY     CLEAR     54  49  83 S8        29.99S
SALISBURY      CLEAR     61  54  77 SE8       29.96S
BAY BRIDGE AP* PTCLDY    52  50  93 CALM      29.94S FOG
CAMBRIDGE*     CLEAR     63  55  77 S9        29.96R
EASTON*        CLEAR     66  55  68 S6        29.98R

$$

MDZ017>025-280200-
SOUTHERN MARYLAND

CITY           SKY/WX    TMP DP  RH WIND       PRES   REMARKS
PATUXENT RIVER MOCLDY    58  54  86 CALM      29.94R
ST INIGOES     CLOUDY    66  55  67 SE8       29.94R
LEONARDTOWN*   PTCLDY    68  55  64 SE3       29.96R

$$

MDZ003>005-280200-
NORTH CENTRAL MARYLAND

CITY           SKY/WX    TMP DP  RH WIND       PRES   REMARKS
FREDERICK*     NOT AVBL
HAGERSTOWN APT CLOUDY    65  56  72 SE5       29.91S
WESTMINSTER*   CLOUDY    64  55  72 SE8       29.94S

$$

MDZ501>502-280200-
WESTERN MARYLAND

CITY           SKY/WX    TMP DP  RH WIND       PRES   REMARKS
OAKLAND*       PTCLDY    55  46  71 S5        29.97R
CUMBERLAND*    PTCLDY    63  52  67 S3        29.94R

$$

VAZ025>031-280200-
SHENANDOAH VALLEY

CITY           SKY/WX    TMP DP  RH WIND       PRES   REMARKS
WINCHESTER*    CLOUDY    57  55  94 CALM      29.92R
FRONT ROYAL*   PTCLDY    61  59  94 CALM      29.92R
LURAY*         CLOUDY    64  59  82 SW7       29.94R
NEW MARKET*    MOCLDY    60  53  76 CALM      29.93R
STAUNTON*      CLOUDY    60  55  84 CALM      29.96S
WAYNESBORO*    CLOUDY    60  60 100 CALM      29.96S

$$

WVZ021-048>050-054>055-280200-
EASTERN WEST VIRGINIA PANHANDLE

CITY           SKY/WX    TMP DP  RH WIND       PRES   REMARKS
MARTINSBURG    CLOUDY    61  55  81 CALM      29.90F
PETERSBURG*    CLOUDY    62  54  77 CALM      29.93R

$$

VAZ036>039-050-280200-
CENTRAL FOOTHILLS

CITY           SKY/WX    TMP DP  RH WIND       PRES   REMARKS
CHARLOTTESVILL CLOUDY    70  57  63 CALM      29.93R
CULPEPER*      RAIN      69  59  71 SW8       29.93S
ORANGE*        CLOUDY    64  55  72 CALM      29.95R
GORDONSVILLE*  MOCLDY    66  57  73 CALM      29.93R
WARRENTON*     MOCLDY    70  52  52 CALM      29.91S

$$

VAZ055>057-280200-
NORTH AND CENTRAL PIEDMONT

CITY           SKY/WX    TMP DP  RH WIND       PRES   REMARKS
FREDERICKSBRG* PTCLDY    70  57  63 S6        29.92R
STAFFORD*      CLOUDY    68  56  64 S3        29.97R

$$

NCZ024-NYZ072-PAZ021-071-VAZ022-071-280200-
OTHER REGIONAL OBSERVATIONS

CITY           SKY/WX    TMP DP  RH WIND       PRES   REMARKS
NEW YORK CITY  CLEAR     46  44  93 NE3       30.03R
PHILADELPHIA   PTCLDY    54  51  90 CALM      29.97R
PITTSBURGH     CLOUDY    63  49  60 SW3       29.90R
ROANOKE        CLOUDY    71  54  54 S5        29.95S
RICHMOND       PTCLDY    67  57  70 S8        29.95R
RALEIGH        MOCLDY    71  57  61 S8        29.98R

$$

ANZ530>537-280200-
MARINE OBSERVATIONS

STATION/POSITION TIME  TEMP    WIND        PRES
                       AIR SEA DIR/SP/G
                 (UTC) (F)     (DEG/KT/KT) (MB)
THOMAS PT LIGHT  0000   58 46  350/  3/  3   N/A
BALT KEY BRIDGE  0030   57     300/  1/  2 1013.7R
COVE POINT       0030   56     190/ 12/ 12 1014.2R
LEWISETTA        0030   68 54  190/  6/  7 1013.5R
SOLOMONS ISLAND  0030   54 47   CALM  /  1   N/A
PINEY POINT      0030          160/ 10/ 10   N/A

$$





USA.gov is the U.S. government's official web portal to all federal, state and local government web resources and services.